Regional Weather Roundup
Issued by NWS

Home | Current Version | Previous Version | Text Only | Print | Product List | Glossary Off
Versions: 1 2 3 4 5 6 7 8 9 10 11 12 13 14 15 16 17 18 19 20 21 22 23 24 25 26 27 28 29 30 31 32 33 34 35 36 37 38 39 40 41 42 43 44 45 46 47 48 49 50

000
ASUS43 KMKX 261221
RWRWI

WISCONSIN REGIONAL WEATHER ROUNDUP
NATIONAL WEATHER SERVICE MILWAUKEE/SULLIVAN WI
700 AM CDT TUE SEP 26 2017

NOTE: "FAIR" INDICATES FEW OR NO CLOUDS BELOW 12,000 FEET WITH NO
SIGNIFICANT WEATHER AND/OR OBSTRUCTIONS TO VISIBILITY.

WIZ001-002-006>008-014>016-023>028-261300-
NORTHWEST WISCONSIN

CITY           SKY/WX    TMP DP  RH WIND       PRES   REMARKS
SUPERIOR ARPT  DRIZZLE   56  55  99 NE10G17   29.92S
6HR MIN TEMP:  56; 6HR MAX TEMP:  59; 6HR PCP:  0.50;

ASHLAND        CLOUDY    57  56  96 NE9       29.92R
6HR MIN TEMP:  56; 6HR MAX TEMP:  57; 6HR PCP:  0.36;

HAYWARD        LGT RAIN  59  57  93 N3        29.90S
6HR MIN TEMP:  58; 6HR MAX TEMP:  59; 6HR PCP:  0.16;

SIREN          LGT RAIN  58  57  98 CALM      29.90S
6HR MIN TEMP:  56; 6HR MAX TEMP:  58; 6HR PCP:  0.18;

CUMBERLAND     DRIZZLE   57  55  94 S3        29.91R
RICE LAKE      LGT RAIN  60  60  99 CALM      29.91S VSB 1
6HR MIN TEMP:  58; 6HR MAX TEMP:  60; 6HR PCP:  0.07;

CHETEK         LGT RAIN  61  61 100 E6        29.90S VSB 1/2
6HR MIN TEMP:  60; 6HR MAX TEMP:  61; 6HR PCP:  0.04;

LADYSMITH      FOG       62  62  98 CALM      29.92S VSB 1/2
6HR MIN TEMP:  61; 6HR MAX TEMP:  62;

EAU CLAIRE     LGT RAIN  63  63 100 S6        29.90R
6HR MIN TEMP:  63; 6HR MAX TEMP:  64; 6HR PCP: TRACE;

MENOMONIE      DRIZZLE   62  62 100 SE3       29.91R
6HR MIN TEMP:  61; 6HR MAX TEMP:  62; 6HR PCP:  0.02;

NEW RICHMOND   LGT RAIN  58  58  99 W6        29.92R
6HR MIN TEMP:  57; 6HR MAX TEMP:  58; 6HR PCP:  0.09;

OSCEOLA        RAIN      57  57 100 W7        29.95R
6HR MIN TEMP:  57; 6HR MAX TEMP:  58; 6HR PCP:  0.05;

$$

WIZ003>005-009-010-017-018-261300-
NORTH CENTRAL WISCONSIN

CITY           SKY/WX    TMP DP  RH WIND       PRES   REMARKS
MANITOWISH WTR FOG       61  61 100 CALM      29.91  VSB 1/2
ARBOR VITAE    FOG       64  62  96 S5        29.91R VSB 1
6HR MIN TEMP:  62; 6HR MAX TEMP:  64;

WOODRUFF       FOG       64  62  96 S5        29.91R VSB 1
6HR MIN TEMP:  62; 6HR MAX TEMP:  64;

RHINELANDER    PTCLDY    64  64 100 S5        29.92S
6HR MIN TEMP:  62; 6HR MAX TEMP:  64; 6HR PCP: TRACE;

EAGLE RIVER    MOCLDY    63  63 100 CALM      29.91S FOG
6HR MIN TEMP:  61; 6HR MAX TEMP:  63;

LAND O LAKES   FOG       62  62 100 CALM      29.93S VSB 1/4
6HR MIN TEMP:  61; 6HR MAX TEMP:  62;

PHILLIPS       FOG       61  61 100 CALM      29.91R VSB 1/2
6HR MIN TEMP:  58; 6HR MAX TEMP:  61; 6HR PCP:  0.01;

TOMAHAWK       FOG       61  60  97 CALM      29.92S VSB 1/2
6HR MIN TEMP:  61; 6HR MAX TEMP:  62;

MEDFORD        PTCLDY    62  62  99 S5        29.91S FOG
6HR MIN TEMP:  61; 6HR MAX TEMP:  62;

MERRILL        PTCLDY    64  64 100 CALM      29.93R FOG
6HR MIN TEMP:  62; 6HR MAX TEMP:  65;

$$

WIZ029-030-035-036-043>047-261300-
CENTRAL WISCONSIN

CITY           SKY/WX    TMP DP  RH WIND       PRES   REMARKS
WAUSAU         LGT RAIN  65  64  97 SE6       29.91S
6HR MIN TEMP:  65; 6HR MAX TEMP:  66; 6HR PCP:  0.03;

MOSINEE        CLOUDY    64  64 100 S5        29.93F FOG
MARSHFIELD     CLOUDY    63  62  97 S5        29.92R FOG
6HR MIN TEMP:  63; 6HR MAX TEMP:  65; 6HR PCP: TRACE;

STEVENS POINT  CLOUDY    64  64 100 CALM      29.93S
6HR MIN TEMP:  63; 6HR MAX TEMP:  66;

WAUPACA        LGT RAIN  67  66  97 CALM      29.92F
6HR MIN TEMP:  65; 6HR MAX TEMP:  67;

WAUTOMA        CLOUDY    65  64  97 CALM      29.92F
6HR MIN TEMP:  65; 6HR MAX TEMP:  67; 6HR PCP:  0.02;

WISC RAPIDS    PTCLDY    65  65 100 CALM      29.93S FOG
6HR MIN TEMP:  65; 6HR MAX TEMP:  67; 6HR PCP:  0.02;

CAMP DOUGLAS   CLOUDY    63  63 100 CALM      29.92R
                                      6HR PCP:  0.03;

$$

WIZ011>013-019>022-031-037>040-048>050-261300-
NORTHEAST WISCONSIN

CITY           SKY/WX    TMP DP  RH WIND       PRES   REMARKS
ANTIGO         CLOUDY    63  63 100 S3        29.94S
6HR MIN TEMP:  63; 6HR MAX TEMP:  64; 6HR PCP:  0.04;

SHAWANO        MOCLDY    67  64  89 CALM      29.92R
6HR MIN TEMP:  64; 6HR MAX TEMP:  67;

OCONTO         CLOUDY    62  62  99 CALM      29.91S VSB 1/4
6HR MIN TEMP:  58; 6HR MAX TEMP:  62;

STURGEON BAY   MOCLDY    61  61 100 CALM      29.92S FOG
6HR MIN TEMP:  60; 6HR MAX TEMP:  68;

GREEN BAY      CLOUDY    62  62 100 CALM      29.92R FOG
6HR MIN TEMP:  61; 6HR MAX TEMP:  65;

MANITOWOC      CLEAR     60  58  92 CALM      29.93S
6HR MIN TEMP:  59; 6HR MAX TEMP:  66;

APPLETON       MOCLDY    64  63  94 S3        29.91R
CLINTONVILLE   CLOUDY    64  63  94 CALM      29.92R
OSHKOSH        CLOUDY    65  63  93 S5        29.92R
6HR MIN TEMP:  61; 6HR MAX TEMP:  69;

$$

WIZ032>034-041-042-053>061-261300-
SOUTHWEST WISCONSIN

CITY           SKY/WX    TMP DP  RH WIND       PRES   REMARKS
LA CROSSE      CLOUDY    68  67  96 S7        29.91R
6HR MIN TEMP:  68; 6HR MAX TEMP:  69; 6HR PCP:  0.01;

SPARTA         MOCLDY    57  57 100 CALM      29.93R FOG
6HR MIN TEMP:  57; 6HR MAX TEMP:  61; 6HR PCP:  0.01;

VIROQUA        CLOUDY    64  64 100 CALM      29.95R
6HR MIN TEMP:  64; 6HR MAX TEMP:  65; 6HR PCP:  0.03;

BOSCOBEL       FOG       67  66  97 CALM      29.93R VSB 1/2
6HR MIN TEMP:  66; 6HR MAX TEMP:  68; 6HR PCP:  0.02;

PRAIRIE DU CHI HVY RAIN  67  65  94 CALM      29.94R
6HR MIN TEMP:  65; 6HR MAX TEMP:  67; 6HR PCP:  0.13;

PLATTEVILLE    CLOUDY    66  66 100 SE6       29.94R
6HR MIN TEMP:  65; 6HR MAX TEMP:  67;

$$

WIZ056-057-062-063-064-067-068-261300-
SOUTH CENTRAL WISCONSIN

CITY           SKY/WX    TMP DP  RH WIND       PRES   REMARKS
REEDSBURG      CLOUDY    64  64 100 CALM      29.93R FOG
6HR MIN TEMP:  64; 6HR MAX TEMP:  65; 6HR PCP:  0.06;

BARABOO/DELLS  CLOUDY    64  63  94 CALM      29.92S FOG
6HR MIN TEMP:  64; 6HR MAX TEMP:  66; 6HR PCP:  0.03;

LONE ROCK      PTCLDY    65  65 100 NW3       29.93R FOG
6HR MIN TEMP:  65; 6HR MAX TEMP:  67; 6HR PCP: TRACE;

MINERAL POINT  CLOUDY    64  64 100 SE5       29.93S FOG
MADISON        MOCLDY    69  62  78 CALM      29.92R
6HR MIN TEMP:  63; 6HR MAX TEMP:  70; 6HR PCP: TRACE;

MIDDLETON      PTCLDY    67  67 100 CALM      29.93R
6HR MIN TEMP:  63; 6HR MAX TEMP:  68; 6HR PCP:  0.02;

WATERTOWN      MOCLDY    63  63 100 CALM      29.92S
6HR MIN TEMP:  61; 6HR MAX TEMP:  69;

MONROE         CLOUDY    68  61  77 SE6       29.94R
JANESVILLE     MOCLDY    66  66 100 VRB5      29.93S
$$

WIZ051-052-058>065-066-070>072-261300-
SOUTHEAST WISCONSIN

CITY           SKY/WX    TMP DP  RH WIND       PRES   REMARKS
MILWAUKEE      MOCLDY    67  60  78 CALM      29.93S
6HR MIN TEMP:  65; 6HR MAX TEMP:  74;

WAUKESHA       CLEAR     61  57  88 CALM      29.95S
MILWAUKEE/TIMM MOCLDY    61  55  82 W3        29.95R
RACINE         PTCLDY    64  62  93 SW3       29.95S
6HR MIN TEMP:  63; 6HR MAX TEMP:  71;

BURLINGTON     MOCLDY    58  58 100 CALM      29.94S
6HR MIN TEMP:  57; 6HR MAX TEMP:  63;

KENOSHA        CLOUDY    65  59  81 CALM      29.95R
6HR MIN TEMP:  63; 6HR MAX TEMP:  70;

FOND DU LAC    MOCLDY    63  60  90 S3        29.93S
6HR MIN TEMP:  61; 6HR MAX TEMP:  69;

SHEBOYGAN      PTCLDY    60  60 100 CALM      29.93S FOG
6HR MIN TEMP:  59; 6HR MAX TEMP:  63;

WEST BEND        N/A     59  59 100 CALM      29.95R
JUNEAU         CLOUDY    64  62  92 E5        29.93F
6HR MIN TEMP:  61; 6HR MAX TEMP:  68;

$$

LSZ147-162-261300-
LAKE SUPERIOR

STATION/POSITION TIME  TEMP    WIND        PRES    WAVE
                       AIR SEA DIR/SP/G            HT/PER
                 (UTC) (F)     (DEG/KT/KT) (MB)    (FT/S)
W MID LAKE BUOY  1150   55 54   50/ 16/ 17 1013.3R   5/ 5
DEVILS ISLAND    1200   55      50/ 22/ 24 1013.4S
SAXON HARBOR     1130   59      CALM  /  3 1011.9S
$$

LMZ867-665-643>646-261300-
LAKE MICHIGAN

STATION/POSITION TIME  TEMP    WIND        PRES    WAVE
                       AIR SEA DIR/SP/G            HT/PER
                 (UTC)



USA.gov is the U.S. government's official web portal to all federal, state and local government web resources and services.